CW9414 Weather Reports


time (UTC)temp
F
wind
direction
speed
knots
gust
knots
rain 1hr
in
rain 24hr
in
rain mn
in
humidity
%
barometer
mb
20260504185406 84 196 5.2 6.1 0.00 0.00 0.00 48 1009.9
20260504184406 83 191 4.3 6.1 0.00 0.00 0.00 50 1010.1
20260504183406 82 178 2.6 6.1 0.00 0.00 0.00 50 1010.1
20260504182406 82 226 1.7 6.1 0.00 0.00 0.00 50 1010.3
20260504181409 82 140 1.7 4.3 0.00 0.00 0.00 50 1010.3
20260504180406 82 182 0.9 6.1 0.00 0.00 0.00 50 1010.3
20260504175407 82 147 0.9 7.8 0.00 0.00 0.00 51 1010.9
20260504174406 81 205 1.7 6.1 0.00 0.00 0.00 51 1010.9
20260504173409 81 142 1.7 4.3 0.00 0.00 0.00 54 1010.8
20260504172406 80 159 0.9 8.7 0.00 0.00 0.00 54 1011.1
20260504171406 80 185 2.6 5.2 0.00 0.00 0.00 53 1011.4
20260504170407 80 205 2.6 6.1 0.00 0.00 0.00 53 1011.4
20260504160406 77 134 4.3 7.8 0.00 0.00 0.00 60 1011.9
20260504150406 72 192 2.6 7.8 0.00 0.00 0.00 65 1011.9
20260504140409 67 151 1.7 2.6 0.00 0.00 0.00 73 1012.0
20260504130406 60 151 0.0 0.0 0.00 0.00 0.00 80 1011.8
20260504110406 59 151 0.0 0.0 0.00 0.00 0.00 74 1011.6
20260504100409 59 151 0.0 0.0 0.00 0.00 0.00 73 1011.7
20260504081405 61 151 0.0 0.0 0.00 0.00 0.00 69 1012.6
20260504080405 61 151 0.0 0.0 0.00 0.00 0.00 69 1012.6
20260504070405 62 151 0.0 0.0 0.00 0.00 0.00 66 1013.8
20260504050408 65 151 0.0 0.9 0.00 0.00 0.00 59 1014.5
20260504045405 65 151 0.0 0.9 0.00 0.00 0.00 59 1014.5
20260504044405 65 151 0.0 0.0 0.00 0.00 0.00 58 1014.7
20260504043405 66 151 0.0 0.0 0.00 0.00 0.00 58 1014.7
20260504042405 66 151 0.0 0.9 0.00 0.00 0.00 57 1014.9
20260504041405 66 151 0.0 0.9 0.00 0.00 0.00 56 1014.8
20260504040405 67 151 0.0 0.0 0.00 0.00 0.00 56 1014.8
20260504035405 67 151 0.0 2.6 0.00 0.00 0.00 55 1014.6
20260504034405 67 151 0.0 3.5 0.00 0.00 0.00 55 1014.8
20260504033405 68 151 0.0 4.3 0.00 0.00 0.00 54 1014.8
20260504032405 68 151 0.0 3.5 0.00 0.00 0.00 53 1014.5
20260504031408 68 151 0.9 3.5 0.00 0.00 0.00 52 1014.4
20260504030405 69 151 4.3 4.3 0.00 0.00 0.00 52 1014.4
20260504025405 69 151 0.0 5.2 0.00 0.00 0.00 51 1014.4
20260504024405 69 154 3.5 5.2 0.00 0.00 0.00 50 1014.4
20260504023405 70 155 1.7 3.5 0.00 0.00 0.00 49 1014.4
20260504022405 70 157 0.9 2.6 0.00 0.00 0.00 48 1014.3
20260504021406 71 150 1.7 3.5 0.00 0.00 0.00 47 1014.1
20260504020405 71 149 0.9 3.5 0.00 0.00 0.00 47 1014.1
20260504015405 72 180 0.0 4.3 0.00 0.00 0.00 46 1013.9
20260504014408 72 129 0.0 2.6 0.00 0.00 0.00 45 1013.9
20260504013406 73 120 1.7 2.6 0.00 0.00 0.00 44 1013.9
20260504012405 73 165 1.7 3.5 0.00 0.00 0.00 43 1013.9
20260504011405 74 165 3.5 3.5 0.00 0.00 0.00 42 1014.0
20260504010404 74 165 0.0 4.3 0.00 0.00 0.00 41 1014.0
20260504005405 75 180 1.7 5.2 0.00 0.00 0.00 41 1014.0
20260504004405 75 147 1.7 4.3 0.00 0.00 0.00 39 1014.0
20260504003405 76 147 0.9 4.3 0.00 0.00 0.00 38 1014.0
20260504002405 77 147 0.0 4.3 0.00 0.00 0.00 37 1014.0
20260504001405 78 142 1.7 6.1 0.00 0.00 0.00 36 1014.0
20260504000409 79 171 1.7 7.8 0.00 0.00 0.00 34 1014.0
20260503235404 80 154 2.6 4.3 0.00 0.00 0.00 33 1014.0
20260503234404 81 159 0.9 2.6 0.00 0.00 0.00 31 1014.0
20260503233405 81 157 0.0 5.2 0.00 0.00 0.00 29 1014.0
20260503232404 82 180 0.9 4.3 0.00 0.00 0.00 28 1014.4
20260503231404 82 183 0.9 1.7 0.00 0.00 0.00 28 1014.2
20260503230405 82 188 1.7 1.7 0.00 0.00 0.00 28 1014.2
20260503225406 82 146 0.9 3.5 0.00 0.00 0.00 27 1014.4
20260503224408 82 148 1.7 4.3 0.00 0.00 0.00 27 1014.6
20260503223405 83 161 2.6 6.1 0.00 0.00 0.00 27 1014.6
20260503222405 83 148 1.7 5.2 0.00 0.00 0.00 27 1014.7
20260503221404 83 140 4.3 6.1 0.00 0.00 0.00 26 1014.9
20260503220404 84 161 1.7 4.3 0.00 0.00 0.00 27 1014.9
20260503215405 83 161 0.9 3.5 0.00 0.00 0.00 27 1015.0
20260503214404 83 168 3.5 4.3 0.00 0.00 0.00 28 1015.2
20260503213405 84 186 4.3 5.2 0.00 0.00 0.00 25 1015.2
20260503212408 84 164 1.7 5.2 0.00 0.00 0.00 26 1015.5
20260503211405 84 172 1.7 4.3 0.00 0.00 0.00 26 1015.6
20260503210408 84 167 2.6 7.8 0.00 0.00 0.00 25 1015.6
20260503205405 85 161 3.5 7.0 0.00 0.00 0.00 27 1015.7
20260503204405 85 157 0.9 3.5 0.00 0.00 0.00 27 1016.2
20260503203404 85 153 1.7 2.6 0.00 0.00 0.00 27 1016.2
20260503202404 85 153 1.7 2.6 0.00 0.00 0.00 27 1016.2
20260503201404 85 153 0.9 1.7 0.00 0.00 0.00 28 1016.6
20260503200405 84 153 0.0 1.7 0.00 0.00 0.00 30 1016.6
20260503195408 84 153 1.7 2.6 0.00 0.00 0.00 29 1016.7
20260503194408 84 194 0.0 2.6 0.00 0.00 0.00 28 1017.1
20260503193408 83 196 1.7 3.5 0.00 0.00 0.00 29 1017.1
20260503192405 83 148 1.7 6.1 0.00 0.00 0.00 28 1017.2
20260503191404 83 78 0.9 3.5 0.00 0.00 0.00 28 1017.6
20260503190404 83 73 0.0 4.3 0.00 0.00 0.00 28 1017.6